"2009-10-16 00:00:00",1330846,8.45,331.4,2.325,0.29,12.35,105.703,13.87,14.94,27.45,0,110.5,13.3,14.67,293.4
"2009-10-16 00:00:30",1330847,8.47,333.3,1.649,0.161,12.58,105.687,13.83,14.93,27.31,0,110.5,13.3,14.63,295.3
"2009-10-16 00:01:00",1330848,8.55,333.4,1.459,0.158,12.97,105.6884,13.83,14.91,27.38,0,110.5,13.3,14.64,295.4
"2009-10-16 00:01:30",1330849,8.28,329.8,1.474,0.171,13.62,105.6896,13.84,14.91,27.1,0,110.5,13.31,14.64,291.8
"2009-10-16 00:02:00",1330850,8.06,326.3,1.349,0.187,13.88,105.6917,13.84,14.9,27.07,0,110.5,13.31,14.64,288.3
"2009-10-16 00:02:30",1330851,8.14,324.1,1.102,0.187,14.29,105.695,13.85,14.99,27.2,0,110.5,13.31,14.65,286.1
"2009-10-16 00:03:00",1330852,9.95,335,5.818,1.265,18.02,105.6848,13.83,15.15,27.35,0,110.4,13.28,14.63,297.0
"2009-10-16 00:03:30",1330853,10.7,337.8,4.811,0.73,18.5,105.674,13.8,15.21,27.46,0,110.5,13.28,14.60,299.8
"2009-10-16 00:04:00",1330854,10.66,341.9,6.8,0.995,17.15,105.674,13.8,15.09,27.83,0,110.5,13.27,14.60,303.9
"2009-10-16 00:04:30",1330855,8.58,329.5,1.131,0.172,12.38,105.6767,13.8,14.85,27.7,0,110.5,13.31,14.61,291.5
"2009-10-16 00:05:00",1330856,8.76,328.9,1.804,0.221,12.31,105.6785,13.81,14.84,27.88,0,110.5,13.31,14.61,290.9
"2009-10-16 00:05:30",1330857,8.33,324.7,1.346,0.146,12.85,105.6788,13.81,14.83,27.64,0,110.5,13.31,14.61,286.7
"2009-10-16 00:06:00",1330858,8.27,325.4,2.52,0.173,13.34,105.6597,13.76,14.81,27.5,0,110.5,13.31,14.56,287.4
"2009-10-16 00:06:30",1330859,8.46,328.6,3.083,0.47,13.67,105.6479,13.73,14.8,27.4,0,110.5,13.32,14.53,290.6
"2009-10-16 00:07:00",1330860,10,333.4,5.44,1.227,15.42,105.6476,13.73,14.9,27.89,0,110.5,13.28,14.53,295.4
"2009-10-16 00:07:30",1330861,11.36,337.1,5.858,1.168,17.35,105.6476,13.73,14.99,28.15,0,110.5,13.28,14.53,299.1
"2009-10-16 00:08:00",1330862,11.16,339.4,3.677,0.884,18.66,105.6459,13.73,15.1,28.13,0,110.5,13.27,14.53,301.4
"2009-10-16 00:08:30",1330863,9.84,333.5,7.334,1.33,15.96,105.6335,13.69,14.97,27.88,0,110.4,13.27,14.49,295.5
"2009-10-16 00:09:00",1330864,8.59,322.9,1.104,0.158,12.62,105.6163,13.65,14.77,27.69,0,110.4,13.3,14.45,284.9
"2009-10-16 00:09:30",1330865,8.91,319.9,1.364,0.493,12.64,105.6138,13.64,14.7,27.53,0,110.4,13.31,14.44,281.9
"2009-10-16 00:10:00",1330866,8.64,316.9,2.499,0.341,12.91,105.6138,13.64,14.68,27.41,0,110.4,13.31,14.44,278.9
"2009-10-16 00:10:30",1330867,9.19,316.6,2.254,0.435,13.35,105.6138,13.64,14.68,27.46,0,110.4,13.31,14.44,278.6
"2009-10-16 00:11:00",1330868,8.82,329.1,3.265,0.737,13.24,105.6065,13.62,14.67,28.06,0,110.4,13.31,14.42,291.1
"2009-10-16 00:11:30",1330869,10.13,328.1,5.21,1.283,15.32,105.5865,13.57,14.8,29.08,0,110.4,13.28,14.37,290.1
"2009-10-16 00:12:00",1330870,10.76,328,6.45,1.154,18.2,105.58,13.56,14.89,28.32,0,110.4,13.28,14.36,290.0
"2009-10-16 00:12:30",1330871,10.5,326.3,4.916,0.801,19,105.58,13.56,14.95,27.64,0,110.4,13.28,14.36,288.3
"2009-10-16 00:13:00",1330872,9.8,322.5,7.532,1.381,16.41,105.58,13.56,14.81,27.17,0,110.5,13.28,14.36,284.5
"2009-10-16 00:13:30",1330873,8.19,310.9,2.236,0.242,12.76,105.58,13.56,14.6,26.79,0,110.4,13.32,14.36,272.9
"2009-10-16 00:14:00",1330874,8.08,318.9,3.157,0.266,12.5,105.5729,13.54,14.59,27.39,0,110.4,13.32,14.34,280.9
"2009-10-16 00:14:30",1330875,9.61,320.8,1.885,0.633,12.94,105.5667,13.52,14.57,27.66,0,110.4,13.32,14.32,282.8
"2009-10-16 00:15:00",1330876,9.25,321.1,4.186,0.749,13.34,105.5532,13.49,14.56,28.1,0,110.4,13.32,14.29,283.1
"2009-10-16 00:15:30",1330877,9.66,321.4,2.311,0.461,13.82,105.5464,13.47,14.56,27.77,0,110.4,13.32,14.27,283.4
"2009-10-16 00:16:00",1330878,11.54,330.8,4.942,1.105,18.07,105.5479,13.48,14.74,28.16,0,110.4,13.29,14.27,292.8
"2009-10-16 00:16:30",1330879,11.28,331.5,6.162,0.893,18.24,105.5476,13.47,14.8,28.36,0,110.4,13.29,14.27,293.5
"2009-10-16 00:17:00",1330880,10.86,330.5,5.983,1.172,17.48,105.5494,13.48,14.81,28.58,0,110.4,13.29,14.28,292.5
"2009-10-16 00:17:30",1330881,10.51,324.8,6.585,1.255,14.47,105.5542,13.49,14.72,28.72,0,110.4,13.29,14.29,286.8
"2009-10-16 00:18:00",1330882,9.32,323.1,3.562,0.724,13.11,105.5544,13.49,14.57,28.57,0,110.4,13.32,14.29,285.1
"2009-10-16 00:18:30",1330883,8.28,318.9,3.038,0.483,12.7,105.5468,13.47,14.5,28.47,0,110.4,13.32,14.27,280.9
"2009-10-16 00:19:00",1330884,7.642,315.1,3.553,0.339,12.87,105.5402,13.46,14.49,28.52,0,110.4,13.33,14.25,277.1
"2009-10-16 00:19:30",1330885,8.12,321.5,1.363,0.155,13.27,105.5364,13.45,14.48,28.67,0,110.4,13.33,14.24,283.5
"2009-10-16 00:20:00",1330886,9.45,323.9,4.603,1.085,14.25,105.5382,13.45,14.48,28.77,0,110.4,13.29,14.25,285.9
"2009-10-16 00:20:30",1330887,10.7,328.2,5.924,1.357,17.11,105.5394,13.45,14.73,29.02,0,110.4,13.29,14.25,290.2
"2009-10-16 00:21:00",1330888,10.77,326.6,5.841,1.807,17.46,105.54,13.45,14.69,28.28,0,110.4,13.29,14.25,288.6
"2009-10-16 00:21:30",1330889,9.05,325,5.952,1.48,16.36,105.5433,13.46,14.66,26.86,0,110.4,13.29,14.26,287.0
"2009-10-16 00:22:00",1330890,8.12,330,7.858,1.187,15.23,105.5451,13.47,14.59,27.54,0,110.4,13.29,14.27,292.0
"2009-10-16 00:22:30",1330891,8.4,333.2,4.471,0.491,12.71,105.5392,13.45,14.43,28.5,0,110.4,13.33,14.25,295.2
"2009-10-16 00:23:00",1330892,8.06,327.3,3.027,0.322,12.95,105.5282,13.42,14.41,27.11,0,110.4,13.33,14.22,289.3
"2009-10-16 00:23:30",1330893,7.79,324.2,3.891,0.347,13.07,105.5176,13.4,14.42,26.73,0,110.4,13.33,14.20,286.2
"2009-10-16 00:24:00",1330894,7.279,320.6,2.194,0.233,13.29,105.5145,13.39,14.4,27.1,0,110.4,13.33,14.19,282.6
"2009-10-16 00:24:30",1330895,7.847,319.4,4.924,0.734,14.13,105.5142,13.39,14.52,27.97,0,110.4,13.29,14.19,281.4
"2009-10-16 00:25:00",1330896,8.29,332.1,7.245,1.339,16.89,105.5142,13.39,14.6,28.73,0,110.4,13.29,14.19,294.1
"2009-10-16 00:25:30",1330897,8.39,327.8,5.84,1.252,17.18,105.5142,13.39,14.66,29.22,0,110.4,13.29,14.19,289.8
"2009-10-16 00:26:00",1330898,8.34,329.6,8.35,1.415,15.49,105.5142,13.39,14.58,29.26,0,110.4,13.29,14.19,291.6
"2009-10-16 00:26:30",1330899,9.06,337.7,6.671,0.902,13.36,105.5142,13.39,14.45,29.14,0,110.4,13.29,14.19,299.7
"2009-10-16 00:27:00",1330900,9.6,339,8.4,1.671,14.61,105.5114,13.38,14.48,30.09,0,110.4,13.29,14.18,301.0
"2009-10-16 00:27:30",1330901,7.913,329.2,2.776,0.758,12.46,105.4897,13.33,14.36,29.9,0,110.3,13.32,14.12,291.2
"2009-10-16 00:28:00",1330902,8.07,327.9,4.863,0.544,12.66,105.4804,13.3,14.36,29.59,0,110.3,13.33,14.10,289.9
"2009-10-16 00:28:30",1330903,7.231,334,7.265,0.575,12.86,105.4804,13.3,14.34,29.9,0,110.3,13.33,14.10,296.0
"2009-10-16 00:29:00",1330904,9.02,353.8,6.318,1.305,16.53,105.4804,13.3,14.56,30.78,0,110.3,13.29,14.10,315.8
"2009-10-16 00:29:30",1330905,9.24,352.2,8.11,1.417,16.73,105.4716,13.28,14.6,30.92,0,110.3,13.3,14.08,314.2
"2009-10-16 00:30:00",1330906,9,341.5,6.927,1.266,14.98,105.4471,13.22,14.39,30.07,0,110.3,13.3,14.02,303.5
"2009-10-16 00:30:30",1330907,7.546,333.4,1.932,0.32,12.88,105.4465,13.22,14.37,29.44,0,110.3,13.33,14.01,295.4
"2009-10-16 00:31:00",1330908,8.32,337.7,6.98,1.434,15.27,105.4465,13.22,14.35,29.21,0,110.3,13.3,14.01,299.7
"2009-10-16 00:31:30",1330909,6.453,331.2,1.632,0.109,12.95,105.4375,13.19,14.29,29.01,0,110.3,13.33,13.99,293.2
"2009-10-16 00:32:00",1330910,6.382,326.8,1.023,0.194,12.75,105.4178,13.14,14.22,28.8,0,110.3,13.34,13.94,288.8
"2009-10-16 00:32:30",1330911,6.633,334,3.164,0.194,12.86,105.4127,13.13,14.21,29.05,0,110.3,13.34,13.93,296.0
"2009-10-16 00:33:00",1330912,7.354,340.1,6.064,1.173,13.99,105.4127,13.13,14.21,29.8,0,110.3,13.31,13.93,302.1
"2009-10-16 00:33:30",1330913,7.97,342.8,7.858,1.19,16.78,105.4133,13.13,14.42,30.13,0,110.3,13.31,13.93,304.8
"2009-10-16 00:34:00",1330914,7.775,337.4,6.917,1.284,16.16,105.4125,13.13,14.41,30.11,0,110.3,13.31,13.93,299.4
"2009-10-16 00:34:30",1330915,7.198,342,6.751,1.461,15.09,105.4046,13.11,14.27,30.23,0,110.3,13.31,13.91,304.0
"2009-10-16 00:35:00",1330916,6.869,335.4,2.084,0.554,12.83,105.3886,13.07,14.21,29.76,0,110.3,13.34,13.86,297.4
"2009-10-16 00:35:30",1330917,8.44,342.9,6.009,1.403,15.19,105.381,13.05,14.26,29.32,0,110.3,13.31,13.85,304.9
"2009-10-16 00:36:00",1330918,7.561,340,5.318,0.529,13.44,105.3819,13.05,14.26,29.75,0,110.3,13.31,13.85,302.0
"2009-10-16 00:36:30",1330919,7.018,335.9,2.893,0.296,12.67,105.3836,13.05,14.11,29.34,0,110.3,13.34,13.85,297.9
"2009-10-16 00:37:00",1330920,7.424,335.2,7.06,1.183,14.32,105.384,13.06,14.2,29.46,0,110.3,13.31,13.85,297.2
"2009-10-16 00:37:30",1330921,7.224,326.4,7.601,0.996,14.32,105.38,13.04,14.19,29.23,0,110.3,13.31,13.84,288.4
"2009-10-16 00:38:00",1330922,7.889,325.4,10.83,1.35,15.13,105.3624,13,14.12,27.87,0,110.3,13.31,13.80,287.4
"2009-10-16 00:38:30",1330923,6.857,333.3,8.4,1.174,15.29,105.3554,12.98,14.16,28.07,0,110.3,13.31,13.78,295.3
"2009-10-16 00:39:00",1330924,7.417,349.1,7.634,1.342,16.78,105.3584,12.99,14.32,29.22,0,110.3,13.31,13.79,311.1
"2009-10-16 00:39:30",1330925,7.053,349.3,6.957,1.43,14.47,105.3584,12.99,14.15,29.45,0,110.3,13.31,13.79,311.3
"2009-10-16 00:40:00",1330926,6.613,350.2,4.946,1.097,12.95,105.3578,12.99,14.2,30.77,0,110.3,13.31,13.79,312.2
"2009-10-16 00:40:30",1330927,7.453,357.4,6.552,1.591,14.53,105.3614,13,14.07,31.14,0,110.3,13.3,13.79,319.4
"2009-10-16 00:41:00",1330928,7.508,346.9,5.183,1.015,14.01,105.3623,13,14.06,30.86,0,110.3,13.3,13.80,308.9
"2009-10-16 00:41:30",1330929,7.3,339,3.799,1.027,14.26,105.3575,12.99,14.14,30.37,0,110.3,13.3,13.78,301.0
"2009-10-16 00:42:00",1330930,6.884,328,5.794,0.97,13.54,105.3407,12.94,14,29.46,0,110.3,13.3,13.74,290.0
"2009-10-16 00:42:30",1330931,6.025,331.1,4.501,0.32,12.81,105.34,12.94,13.98,28.82,0,110.3,13.34,13.74,293.1
"2009-10-16 00:43:00",1330932,6.504,334.4,3.176,0.525,13.49,105.3433,12.95,14.09,29.24,0,110.3,13.34,13.75,296.4
"2009-10-16 00:43:30",1330933,7.919,337.8,6.947,1.337,17.33,105.343,12.95,14.25,28.62,0,110.3,13.31,13.75,299.8
"2009-10-16 00:44:00",1330934,6.22,338.6,7.035,1.215,15.57,105.3454,12.96,14.15,27.66,0,110.3,13.31,13.75,300.6
"2009-10-16 00:44:30",1330935,5.729,330.7,3.659,0.211,13.24,105.3463,12.96,13.95,27.64,0,110.3,13.34,13.76,292.7
"2009-10-16 00:45:00",1330936,6.492,336.4,7.517,1.105,14.09,105.3466,12.96,13.94,27.99,0,110.3,13.31,13.76,298.4
"2009-10-16 00:45:30",1330937,7.822,344.5,5.614,1.561,15.64,105.3463,12.96,14.11,28.7,0,110.3,13.31,13.76,306.5
"2009-10-16 00:46:00",1330938,7.386,344,4.764,1.643,14.95,105.3469,12.96,14,28.07,0,110.3,13.31,13.76,306.0
"2009-10-16 00:46:30",1330939,7.209,345.6,9.21,1.268,15.13,105.3469,12.96,14.06,27.78,0,110.3,13.31,13.76,307.6
"2009-10-16 00:47:00",1330940,6.984,335,2.379,0.186,12.95,105.3466,12.96,13.94,27.43,0,110.3,13.35,13.76,297.0
"2009-10-16 00:47:30",1330941,6.751,332,2.058,0.277,12.99,105.3469,12.96,13.93,27.33,0,110.3,13.35,13.76,294.0
"2009-10-16 00:48:00",1330942,6.65,330.1,4.456,0.569,13.72,105.3469,12.96,14.06,27.55,0,110.3,13.32,13.76,292.1
"2009-10-16 00:48:30",1330943,7.777,333.7,6.552,1.357,15.4,105.3469,12.96,14.05,27.69,0,110.3,13.32,13.76,295.7
"2009-10-16 00:49:00",1330944,6.649,332.7,4.514,1.089,14.25,105.3469,12.96,14.06,27.88,0,110.3,13.32,13.76,294.7
"2009-10-16 00:49:30",1330945,7.196,342.1,8.22,1.327,15.36,105.3469,12.96,14.03,27.85,0,110.3,13.32,13.76,304.1
"2009-10-16 00:50:00",1330946,6.501,344.4,6.65,1.111,14.58,105.3469,12.96,13.93,27.79,0,110.3,13.32,13.76,306.4
"2009-10-16 00:50:30",1330947,6.768,349.8,8.32,1.418,15.87,105.3469,12.96,14.13,28.35,0,110.3,13.32,13.76,311.8
"2009-10-16 00:51:00",1330948,6.697,354.8,7.517,1.343,16.46,105.3469,12.96,14.2,28.73,0,110.3,13.32,13.76,316.8
"2009-10-16 00:51:30",1330949,6.17,344.1,11.45,1.119,13.68,105.3469,12.96,13.95,28.48,0,110.3,13.32,13.76,306.1
"2009-10-16 00:52:00",1330950,5.457,338.5,4.157,0.347,12.4,105.3469,12.96,13.95,28.4,0,110.3,13.35,13.76,300.5
"2009-10-16 00:52:30",1330951,5.59,336.4,2.914,0.198,12.63,105.3469,12.96,13.95,28.4,0,110.3,13.35,13.76,298.4
"2009-10-16 00:53:00",1330952,6.734,343.4,8.92,1.271,15.02,105.3483,12.96,14.15,28.3,0,110.3,13.32,13.76,305.4
"2009-10-16 00:53:30",1330953,5.421,338.6,3.587,0.159,13.58,105.3494,12.97,14.09,27.87,0,110.3,13.36,13.76,300.6
"2009-10-16 00:54:00",1330954,5.41,346,5.555,0.507,13.5,105.3519,12.97,14.09,28.1,0,110.3,13.36,13.77,308.0
"2009-10-16 00:54:30",1330955,5.412,358.5,6.877,1.463,15.46,105.3581,12.99,14.05,28.91,0,110.3,13.32,13.79,320.5
"2009-10-16 00:55:00",1330956,4.876,349.6,3.895,1.011,14.25,105.3607,13,14.14,28.93,0,110.3,13.33,13.79,311.6
"2009-10-16 00:55:30",1330957,6.591,347.9,8.31,1.107,16.46,105.361,13,14.18,28.59,0,110.3,13.32,13.79,309.9
"2009-10-16 00:56:00",1330958,5.478,345.3,7.044,1.539,15.18,105.3567,12.99,14.1,28.49,0,110.3,13.32,13.78,307.3
"2009-10-16 00:56:30",1330959,4.442,340.4,3.472,0.33,12.6,105.3536,12.98,13.99,28.51,0,110.3,13.35,13.77,302.4
"2009-10-16 00:57:00",1330960,4.468,343,2.387,0.121,12.34,105.3488,12.97,14,28.52,0,110.3,13.35,13.76,305.0
"2009-10-16 00:57:30",1330961,4.596,342.5,4.181,0.555,12.45,105.3469,12.96,13.99,28.65,0,110.3,13.35,13.76,304.5
"2009-10-16 00:58:00",1330962,5.439,344.7,6.446,0.82,13.47,105.3469,12.96,14.09,28.75,0,110.3,13.31,13.76,306.7
"2009-10-16 00:58:30",1330963,5.935,354.4,6.626,1.477,14.96,105.3469,12.96,14.05,28.78,0,110.3,13.31,13.76,316.4
"2009-10-16 00:59:00",1330964,4.89,338.1,5.044,0.576,13.06,105.3469,12.96,14,28.71,0,110.3,13.35,13.76,300.1
"2009-10-16 00:59:30",1330965,5.346,330.5,5.593,0.691,13.16,105.3469,12.96,14.01,28.85,0,110.3,13.35,13.76,292.5
"2009-10-16 01:00:00",1330966,4.853,0.936,13.88,2.102,16.27,105.3469,12.96,14.25,29.46,0,110.3,13.32,13.76,322.9
"2009-10-16 01:00:30",1330967,5.303,1.417,11.16,1.09,16.43,105.3469,12.96,14.23,29.81,0,110.3,13.31,13.76,323.4
"2009-10-16 01:01:00",1330968,4.51,356.2,11.97,1.9,15.01,105.3469,12.96,14.17,29.81,0,110.3,13.32,13.76,318.2
"2009-10-16 01:01:30",1330969,4.012,344.9,7.658,0.737,13.3,105.3469,12.96,14.1,29.35,0,110.3,13.32,13.76,306.9
"2009-10-16 01:02:00",1330970,3.705,340.4,3.451,0.245,12.32,105.3466,12.96,13.96,29.11,0,110.3,13.36,13.76,302.4
"2009-10-16 01:02:30",1330971,3.981,346.9,5.372,0.852,12.25,105.3446,12.95,13.97,28.94,0,110.3,13.36,13.75,308.9
"2009-10-16 01:03:00",1330972,3.979,359.7,9.78,1.746,13.98,105.3367,12.93,14.13,29.5,0,110.3,13.33,13.73,321.7
"2009-10-16 01:03:30",1330973,3.255,3.824,10.88,1.196,13.46,105.3246,12.9,14.07,29.44,0,110.3,13.33,13.70,325.8
"2009-10-16 01:04:00",1330974,3.621,1.014,7.855,1.174,13.79,105.3142,12.88,13.98,29.37,0,110.3,13.33,13.67,323.0
"2009-10-16 01:04:30",1330975,2.893,3.266,7.827,0.564,12.82,105.3148,12.88,13.93,29.49,0,110.3,13.36,13.68,325.3
"2009-10-16 01:05:00",1330976,3.72,8.8,12.19,1.582,14.36,105.3151,12.88,13.94,29.58,0,110.3,13.33,13.68,330.8
"2009-10-16 01:05:30",1330977,3.762,6.833,7.745,1.474,15.53,105.3175,12.89,14.14,29.76,0,110.3,13.33,13.68,328.8
"2009-10-16 01:06:00",1330978,4.113,13.48,9.74,1.376,15.87,105.319,12.89,14.08,29.65,0,110.3,13.33,13.69,335.5
"2009-10-16 01:06:30",1330979,3.35,2.546,4.987,0.482,12.81,105.3176,12.89,14,29.66,0,110.3,13.36,13.68,324.5
"2009-10-16 01:07:00",1330980,5.271,12.69,8.18,1.442,14.95,105.3021,12.85,13.99,29.88,0,110.3,13.33,13.64,334.7
"2009-10-16 01:07:30",1330981,5.869,355.6,8.4,1.322,14.18,105.2875,12.81,14.06,29.66,0,110.3,13.33,13.61,317.6
"2009-10-16 01:08:00",1330982,5.074,336.1,8.1,0.596,12.5,105.2908,12.82,13.92,29.31,0,110.3,13.36,13.61,298.1
"2009-10-16 01:08:30",1330983,3.185,5.029,16.69,1.495,14.79,105.2925,12.82,13.97,29.36,0,110.3,13.33,13.62,327.0
"2009-10-16 01:09:00",1330984,2.475,11.8,4.544,0.509,12.47,105.2949,12.83,13.92,29.46,0,110.3,13.36,13.62,333.8
"2009-10-16 01:09:30",1330985,3.302,14.16,3.336,0.517,12.45,105.2964,12.83,13.83,29.64,0,110.3,13.36,13.63,336.2
"2009-10-16 01:10:00",1330986,2.508,6.879,4.485,0.683,13.06,105.2919,12.82,13.93,29.82,0,110.3,13.36,13.62,328.9
"2009-10-16 01:10:30",1330987,3.987,5.182,8.82,1.401,14.81,105.2751,12.78,13.9,29.75,0,110.3,13.33,13.57,327.2
"2009-10-16 01:11:00",1330988,3.375,358.5,3.965,0.409,12.9,105.2655,12.75,13.89,29.75,0,110.3,13.37,13.55,320.5
"2009-10-16 01:11:30",1330989,2.988,1.878,4.912,1.004,12.76,105.2652,12.75,13.8,29.72,0,110.3,13.33,13.55,323.9
"2009-10-16 01:12:00",1330990,2.976,12.29,10.86,1.564,15.47,105.2688,12.76,13.97,29.89,0,110.3,13.33,13.56,334.3
"2009-10-16 01:12:30",1330991,4.73,17.74,10.41,2.061,14.74,105.2694,12.76,13.81,29.9,0,110.3,13.33,13.56,339.7
"2009-10-16 01:13:00",1330992,3.795,10.08,4.466,0.684,13.28,105.2687,12.76,13.9,30.35,0,110.3,13.34,13.56,332.1
"2009-10-16 01:13:30",1330993,6.098,13.54,7.966,1.308,16.43,105.2535,12.72,13.97,30.56,0,110.3,13.33,13.52,335.5
"2009-10-16 01:14:00",1330994,4.916,1.985,4.503,0.897,12.85,105.2447,12.7,13.81,30.32,0,110.3,13.33,13.50,324.0
"2009-10-16 01:14:30",1330995,4.272,1.509,4.348,0.613,12.57,105.2433,12.7,13.74,30.09,0,110.3,13.36,13.49,323.5
"2009-10-16 01:15:00",1330996,4.669,6.855,8.13,1.495,14.49,105.2427,12.69,13.8,30.02,0,110.3,13.33,13.49,328.9
"2009-10-16 01:15:30",1330997,3.508,11.15,9.26,1.42,14.39,105.2439,12.7,13.84,29.98,0,110.3,13.33,13.49,333.1
"2009-10-16 01:16:00",1330998,5.044,16.77,3.772,1.515,12.27,105.2462,12.7,13.69,30.07,0,110.3,13.36,13.50,338.8
"2009-10-16 01:16:30",1330999,6.266,14.95,3.627,0.583,12.6,105.2437,12.7,13.67,30.33,0,110.3,13.36,13.49,337.0
"2009-10-16 01:17:00",1331000,6.346,14.01,8.05,1.361,15.4,105.2313,12.66,13.83,30.34,0,110.3,13.33,13.46,336.0
"2009-10-16 01:17:30",1331001,5.22,10.93,5.819,0.991,14.08,105.2155,12.62,13.77,30.17,0,110.3,13.33,13.42,332.9
"2009-10-16 01:18:00",1331002,4.982,21.29,8,1.143,16.27,105.2133,12.62,13.86,30.16,0,110.3,13.33,13.41,343.3
"2009-10-16 01:18:30",1331003,4.743,22.71,6.693,1.196,15.8,105.213,12.62,13.86,29.98,0,110.3,13.33,13.41,344.7
"2009-10-16 01:19:00",1331004,3.452,11.71,4.912,0.651,12.31,105.2133,12.62,13.62,29.94,0,110.3,13.37,13.41,333.7
"2009-10-16 01:19:30",1331005,4.584,13.07,11.4,1.156,14.28,105.2133,12.62,13.76,30.2,0,110.3,13.33,13.41,335.1
"2009-10-16 01:20:00",1331006,3.156,8.37,6.09,0.868,12.95,105.2133,12.62,13.75,30.26,0,110.3,13.34,13.41,330.4
"2009-10-16 01:20:30",1331007,3.715,11.6,4.435,0.505,12.23,105.213,12.62,13.61,29.98,0,110.3,13.37,13.41,333.6
"2009-10-16 01:21:00",1331008,4.133,5.911,7.939,0.694,12.49,105.2096,12.61,13.6,29.69,0,110.3,13.37,13.40,327.9
"2009-10-16 01:21:30",1331009,4.328,4.497,3.449,0.649,12.89,105.2017,12.59,13.59,29.4,0,110.3,13.37,13.38,326.5
"2009-10-16 01:22:00",1331010,3.804,5.967,8.61,0.958,13.09,105.2006,12.59,13.58,29.25,0,110.3,13.38,13.38,328.0
"2009-10-16 01:22:30",1331011,4.505,8.73,8.99,1.152,15.24,105.1961,12.57,13.7,29.59,0,110.3,13.34,13.37,330.7
"2009-10-16 01:23:00",1331012,5.923,19.8,10.72,1.435,17.33,105.1918,12.56,13.81,29.79,0,110.3,13.34,13.36,341.8
"2009-10-16 01:23:30",1331013,6.443,25.93,7.004,1.176,16.97,105.1898,12.56,13.8,30.06,0,110.3,13.34,13.35,347.9
"2009-10-16 01:24:00",1331014,6.208,23.86,7.49,1.564,15.61,105.1842,12.54,13.73,30.15,0,110.3,13.34,13.34,345.9
"2009-10-16 01:24:30",1331015,6.519,23.5,6.854,1.401,14.48,105.1808,12.54,13.69,30.22,0,110.3,13.34,13.33,345.5
"2009-10-16 01:25:00",1331016,5.05,17.65,3.912,0.779,12.56,105.18,12.53,13.66,30.28,0,110.3,13.37,13.33,339.6
"2009-10-16 01:25:30",1331017,5.254,18.69,3.174,0.678,12.14,105.1794,12.53,13.54,30.04,0,110.3,13.37,13.33,340.7
"2009-10-16 01:26:00",1331018,4.314,17.01,3.581,0.403,12.46,105.1794,12.53,13.53,29.98,0,110.3,13.37,13.33,339.0
"2009-10-16 01:26:30",1331019,4.253,16.09,2.285,0.625,12.86,105.1794,12.53,13.52,29.88,0,110.3,13.38,13.33,338.1
"2009-10-16 01:27:00",1331020,4.575,18.27,2.258,0.473,13.17,105.1794,12.53,13.52,29.85,0,110.3,13.38,13.33,340.3
"2009-10-16 01:27:30",1331021,5.781,25.65,6.475,1.286,14.89,105.1794,12.53,13.64,29.94,0,110.3,13.34,13.33,347.6
"2009-10-16 01:28:00",1331022,6.861,27.72,6.27,1.279,17.31,105.1794,12.53,13.77,29.98,0,110.3,13.34,13.33,349.7
"2009-10-16 01:28:30",1331023,5.596,26.08,7.961,1.567,16.72,105.1794,12.53,13.76,29.94,0,110.3,13.34,13.33,348.1
"2009-10-16 01:29:00",1331024,5.767,26.21,7.242,1.495,15.44,105.1786,12.53,13.69,29.69,0,110.3,13.34,13.33,348.2
"2009-10-16 01:29:30",1331025,5.955,18.7,6.237,1.365,13.3,105.1749,12.52,13.65,29.81,0,110.3,13.34,13.32,340.7
"2009-10-16 01:30:00",1331026,4.786,15.11,3.218,0.592,11.9,105.1698,12.51,13.5,29.77,0,110.3,13.37,13.30,337.1
"2009-10-16 01:30:30",1331027,5.859,12.98,4.554,0.777,12.13,105.1667,12.5,13.48,29.66,0,110.3,13.37,13.29,335.0
"2009-10-16 01:31:00",1331028,4.737,16.12,2.192,0.568,12.53,105.1594,12.48,13.48,29.49,0,110.3,13.37,13.28,338.1
"2009-10-16 01:31:30",1331029,5.722,18.2,4.029,0.933,13.47,105.1484,12.45,13.49,29.38,0,110.3,13.33,13.25,340.2
"2009-10-16 01:32:00",1331030,4.116,13.81,4.657,0.874,14.18,105.1459,12.45,13.63,29.56,0,110.2,13.34,13.24,335.8
"2009-10-16 01:32:30",1331031,4.613,11.6,5.045,1.203,14.7,105.1456,12.44,13.46,29.31,0,110.2,13.34,13.24,333.6
"2009-10-16 01:33:00",1331032,4.647,11.83,8.92,0.876,14.82,105.1456,12.44,13.59,29.23,0,110.3,13.34,13.24,333.8
"2009-10-16 01:33:30",1331033,6.545,24.04,8.16,1.355,17.35,105.1456,12.44,13.79,29.3,0,110.3,13.33,13.24,346.0
"2009-10-16 01:34:00",1331034,5.773,19.84,7.181,1.309,16.68,105.1456,12.44,13.68,29.3,0,110.2,13.33,13.24,341.8
"2009-10-16 01:34:30",1331035,4.996,13.8,7.638,1.183,12.83,105.1456,12.44,13.44,28.86,0,110.2,13.33,13.24,335.8
"2009-10-16 01:35:00",1331036,3.708,7.769,2.811,0.279,12.02,105.1456,12.44,13.44,28.85,0,110.3,13.37,13.24,329.8
"2009-10-16 01:35:30",1331037,3.901,6.977,2.736,0.381,12.14,105.1456,12.44,13.44,28.89,0,110.3,13.37,13.24,329.0
"2009-10-16 01:36:00",1331038,5.196,15.4,2.401,0.475,12.42,105.1456,12.44,13.45,29.35,0,110.3,13.38,13.24,337.4
"2009-10-16 01:36:30",1331039,7.824,24.09,7.536,1.804,14.73,105.1456,12.44,13.62,29.93,0,110.3,13.34,13.24,346.1
"2009-10-16 01:37:00",1331040,7.897,23.31,6.26,1.267,14.94,105.1456,12.44,13.59,30.22,0,110.3,13.34,13.24,345.3
"2009-10-16 01:37:30",1331041,7.785,21.89,6.004,1.353,14.51,105.1456,12.44,13.46,30.03,0,110.3,13.34,13.24,343.9
"2009-10-16 01:38:00",1331042,9.6,30.3,4.662,0.515,18.18,105.1456,12.44,13.78,30.32,0,110.2,13.34,13.24,352.3
"2009-10-16 01:38:30",1331043,9.03,28.42,5.771,1.284,16.83,105.1456,12.44,13.73,30.33,0,110.3,13.34,13.24,350.4
"2009-10-16 01:39:00",1331044,7.566,19.83,3.698,0.498,12.94,105.1456,12.44,13.56,30.21,0,110.2,13.38,13.24,341.8
"2009-10-16 01:39:30",1331045,7.73,19.53,0.99,0.195,12.11,105.1456,12.44,13.45,30.18,0,110.3,13.38,13.24,341.5
"2009-10-16 01:40:00",1331046,7.544,20.91,2.067,0.315,12.59,105.1456,12.44,13.56,30.44,0,110.3,13.38,13.24,342.9
"2009-10-16 01:40:30",1331047,8.56,26.74,7.338,1.39,14.6,105.1456,12.44,13.49,30.52,0,110.3,13.34,13.24,348.7
"2009-10-16 01:41:00",1331048,7.806,27.55,6.676,1.275,14.54,105.1456,12.44,13.61,30.81,0,110.3,13.34,13.24,349.5
"2009-10-16 01:41:30",1331049,7.753,28.28,6.487,1.165,14.4,105.1456,12.44,13.5,31.06,0,110.3,13.34,13.24,350.3
"2009-10-16 01:42:00",1331050,9.66,33.29,4.766,1.007,17.37,105.1456,12.44,13.75,31.04,0,110.2,13.34,13.24,355.3
"2009-10-16 01:42:30",1331051,8.64,32.23,6.901,1.063,15.98,105.1444,12.44,13.7,31.17,0,110.3,13.34,13.24,354.2
"2009-10-16 01:43:00",1331052,6.904,26.21,5.082,0.753,12.75,105.1354,12.42,13.51,31.31,0,110.2,13.34,13.21,348.2
"2009-10-16 01:43:30",1331053,6.801,25.05,1.749,0.299,11.94,105.1205,12.38,13.41,31.15,0,110.3,13.38,13.18,347.0
"2009-10-16 01:44:00",1331054,7.82,31.69,5.666,1.622,14.29,105.1117,12.36,13.55,31.37,0,110.2,13.34,13.15,353.7
"2009-10-16 01:44:30",1331055,7.309,29.13,5.449,1.035,13.64,105.1117,12.36,13.52,31.36,0,110.3,13.34,13.15,351.1
"2009-10-16 01:45:00",1331056,8.24,28.15,6.936,1.294,14.64,105.1114,12.36,13.45,31.36,0,110.3,13.34,13.15,350.1
"2009-10-16 01:45:30",1331057,8.36,27.03,7.085,1.117,14.61,105.099,12.33,13.53,31.38,0,110.2,13.34,13.12,349.0
"2009-10-16 01:46:00",1331058,9.29,32.53,7.126,1.092,15.99,105.0798,12.28,13.55,31.61,0,110.2,13.34,13.07,354.5
"2009-10-16 01:46:30",1331059,9.21,34.47,6.701,1.191,16.03,105.0779,12.27,13.59,31.83,0,110.2,13.34,13.07,356.5
"2009-10-16 01:47:00",1331060,7.201,26.59,3.541,0.862,12.77,105.0779,12.27,13.3,31.41,0,110.2,13.34,13.07,348.6